309  
ASUS44 KHUN 171710  
RWRHUN  
 
WEATHER ROUNDUP FOR THE TENNESSEE VALLEY  
NATIONAL WEATHER SERVICE HUNTSVILLE AL  
1100 AM CST SUN DEC 17 2017  
 
ALZ001>004-171800-  
NORTHWEST ALABAMA  
 
CITY SKY/WX TMP DP RH WIND PRES REMARKS
 
COURTLAND HCN N/A 43 N/A N/A SE15 N/A  
RUSSELLVILLE N/A 43 N/A N/A MISG N/A  
SHOALS AIRPORT CLOUDY 44 41 89 SE10G21 30.13F  
SHOALS TVA RES N/A 43 N/A N/A MISG N/A  

 
 
ALZ005>007-016-171800-  
NORTH CENTRAL ALABAMA  
 
CITY SKY/WX TMP DP RH WIND PRES REMARKS
 
CULLMAN AG STN N/A 41 N/A N/A CALM N/A  
DECATUR AP LGT RAIN 42 42 100 SE14G20 30.19F FOG  
HUNTSVILLE AP RAIN 43 43 100 SE13 30.24F FOG  
MERIDIANVILLE LGT RAIN 43 39 87 S3 30.26R  
REDSTONE ARSN LGT RAIN 43 43 100 SE17 30.19F FOG  
VINEMONT AP RAIN 39 38 97 N5 30.27S  

 
 
ALZ008>010-171800-  
NORTHEAST ALABAMA  
 
CITY SKY/WX TMP DP RH WIND PRES REMARKS
 
ALBERTVILLE RAIN 41 41 100 NW7 30.22R  
FORT PAYNE DRIZZLE 41 36 81 NE3 30.19F  
SCOTTSBORO AP LGT RAIN 39 39 100 NW6 30.25R WCI 35  
SCOTTSBORO HCN N/A 39 N/A N/A MISG N/A  
VALLEY HEAD N/A 43 N/A N/A MISG N/A  

 
 
TNZ076-096-097-171800-  
SOUTHEASTERN MIDDLE TENNESSEE  
 
CITY SKY/WX TMP DP RH WIND PRES REMARKS
 
TULLAHOMA CLOUDY 41 39 93 S12G22 30.16F FOG  
WINCHESTER CLOUDY 43 37 81 SW6 30.25R  

 
   
..SURROUNDING SITES
 
 
 
CITY SKY/WX TMP DP RH WIND PRES REMARKS
 
ATLANTA LGT RAIN 48 32 53 E5 30.25F  
ANNISTON LGT RAIN 47 36 65 E9 30.20F  
BIRMINGHAM HVY RAIN 43 41 93 N12 30.23R FOG  
CHATTANOOGA CLOUDY 42 33 70 CALM 30.25F  
CORINTH CLOUDY 46 45 93 SE8 30.12F  
DALTON CLOUDY 39 34 81 SW3 30.28R  
GADSDEN LGT RAIN 42 40 92 NE7 30.22F FOG  
GOLDEN TRNGL CLOUDY 46 45 93 SE13 30.13F  
HALEYVILLE RAIN 41 41 100 SE9G20 30.17F FOG  
JACKSON TN CLOUDY 45 43 93 E5 30.14S  
MEMPHIS CLOUDY 46 43 89 SE7 30.11F  
NASHVILLE PTSUNNY 44 40 85 S7 30.14F  
ROME CLOUDY 44 37 76 NE6 30.23F  
SAVANNAH CLOUDY 46 45 93 S6 30.11F  
SELMER CLOUDY 45 43 93 S6 30.11F FOG  
TUPELO CLOUDY 45 43 93 SE3 30.12F  
TUSCALOOSA RAIN 44 44 100 N14 30.24S FOG  

 
   
..GULF COAST WEATHER
 
 
 
CITY SKY/WX TMP DP RH WIND PRES REMARKS
 
GULFPORT LGT RAIN 68 66 93 S10 30.11F FOG  
PASCAGOULA CLOUDY 71 65 81 S12 30.14S  
MOBILE CLOUDY 71 65 81 S16 30.16R  
GULF SHORES CLOUDY 69 66 89 SE9 30.16S  
PENSACOLA CLOUDY 71 64 78 S12 30.16S  
DESTIN CLOUDY 70 62 76 SE12 30.18S  
PANAMA CITY MOSUNNY 71 63 77 S17 30.21S  
APPALACHICOLA CLOUDY 68 64 87 SE10 30.23S  

 
 
 
 
CLICK HERE TO GO TO PREVIOUS BULLETINS.

The Nexlab AL Page
The Nexlab TN Page Main Text Page